Weather Roundup
Issued by NWS Springfield, MO

Home | Current Version | Previous Version | Text Only | Print | Product List | Glossary On
Versions: 1 2 3 4 5 6 7 8 9 10 11 12 13 14 15 16 17 18 19 20 21 22 23 24 25 26 27 28 29 30 31 32 33 34 35 36 37 38 39 40 41 42 43 44 45 46 47 48 49 50
000
NZUS99 KSGF 292207
HRRSGF

HOURLY WEATHER
NATIONAL WEATHER SERVICE SPRINGFIELD MO
500 PM CDT WED MAR 29 2017

......SGF CWA......

CITY           SKY/WX    TMP DP  RH WIND       PRES   REMARKS
SPRINGFIELD    CLOUDY    73  57  57 S21G29    29.69F
JOPLIN         CLOUDY    76  50  40 S21G35    29.64F
WEST PLAINS    CLOUDY    72  61  68 SE9       29.77F
ROLLA          CLOUDY    70  57  63 SE13G21   29.76R
OSAGE BEACH    CLOUDY    72  58  61 SE9       29.72
BRANSON        CLOUDY    72  57  60 S8G17     29.73F

......SURROUNDING SGF CWA......

CITY           SKY/WX    TMP DP  RH WIND       PRES   REMARKS
CHANUTE        MOSUNNY   67  55  65 SW17      29.63S
PARSONS        PTSUNNY   65  55  70 SW14      29.65S
COFFEYVILLE    MOSUNNY   66  54  65 SW15G23   29.64S
EMPORIA        SUNNY     67  56  67 S18       29.59F
GROVE OK       MOSUNNY   75  55  50 S18G25    29.65S
ROGERS AR      PTSUNNY   71  58  63 S17G30    29.69F
SILOAM SPRINGS CLOUDY    72  54  53 S24G31    29.67F
HARRISON AR    CLOUDY    70  59  68 S10       29.73F
NEAR YELLVILLE CLOUDY    75  55  50 S8        29.70F

......KANSAS AND MISSOURI......

CITY           SKY/WX    TMP DP  RH WIND       PRES   REMARKS
KANSAS CTY INT CLOUDY    55  52  89 E16       29.67F
DOWNTOWN KC    PTSUNNY   58  54  86 NE16      29.65F
COLUMBIA       LGT RAIN  60  55  83 E12       29.76F
SEDALIA        CLOUDY    64  57  78 E9        29.72F
ST JOSEPH      CLOUDY    52  51  97 E10       29.71F
ST LOUIS       CLOUDY    65  53  65 E17       29.84F
SPIRIT OF STL  CLOUDY    66  56  70 E12       29.81F
KIRKSVILLE     CLOUDY    51  50  96 E13       29.84R
WICHITA        CLOUDY    57  50  77 S18       29.58R
TOPEKA         LGT RAIN  59  57  93 NE12      29.63F
OLATHE         MOSUNNY   63  59  87 E12G23    29.61F THUNDER

......TENNESSEE......

CITY           SKY/WX    TMP DP  RH WIND       PRES   REMARKS
MEMPHIS        CLOUDY    81  58  45 S16G24    29.81S
NASHVILLE      MOSUNNY   81  58  45 SE10      29.92F

......ARKANSAS.......

CITY           SKY/WX    TMP DP  RH WIND       PRES   REMARKS
FAYETTEVILLE   MOSUNNY   71  59  65 S20G28    29.69F
FT SMITH       MOSUNNY   77  56  48 S16G25    29.67F
LITTLE ROCK    PTSUNNY   80  61  52 S13G22    29.74F

......OKLAHOMA.......

CITY           SKY/WX    TMP DP  RH WIND       PRES   REMARKS
TULSA          CLOUDY    67  56  67 W12       29.63F
PONCA CITY     CLOUDY    58  46  64 SW18G28   29.64R
MCALESTER      MOSUNNY   76  50  40 SW18G24   29.66S
OKLAHOMA CITY  PTSUNNY   58  46  64 W16G26    29.74R

......IOWA............

CITY           SKY/WX    TMP DP  RH WIND       PRES   REMARKS
DES MOINES     LGT RAIN  45  42  89 E17G29    29.89S
QUAD CITIES    LGT RAIN  48  42  80 E18       29.97S

......ILLINOIS........

CITY           SKY/WX    TMP DP  RH WIND       PRES   REMARKS
QUINCY         CLOUDY    52  48  86 SE17G32   29.84S
CHICAGO        CLOUDY    47  35  63 NE20      30.09F



USA.gov is the U.S. government's official web portal to all federal, state and local government web resources and services.